Simultaneous Nadir Overpasses (SNOs) Predictions

Prediction of SNOs between GOES-17 and LANDSAT-8 Satellite Orbit:

Table of predicted SNOs for the next 14.0 days since TLE Epoch: 11/18/2023
Index Date Time (GOES-17) GOES-17 Lat,Lon LANDSAT-8 Lat,Lon Distance(km) Time Diff (sec)
1 11/18/2023 05:22:06 -0.03,-104.66 -0.55,-106.99 265.32 80
2 11/20/2023 05:07:16 -0.04,-104.66 0.10,-104.04 70.34 80
3 11/22/2023 04:55:06 -0.04,-104.66 0.71,-101.08 406.31 80
4 11/22/2023 17:16:21 0.04,-104.66 0.37,-106.24 179.75 80
5 11/24/2023 17:06:50 0.04,-104.66 -0.25,-103.29 156.51 80
6 11/25/2023 05:28:14 -0.04,-104.67 -0.87,-108.48 433.83 80
7 11/26/2023 16:54:39 0.04,-104.67 -0.88,-100.33 492.74 80
8 11/27/2023 05:16:03 -0.04,-104.67 -0.24,-105.52 97.71 80
9 11/29/2023 05:01:12 -0.04,-104.67 0.41,-102.57 238.57 80
10 11/29/2023 17:22:27 0.04,-104.66 0.72,-107.72 348.17 80
11 12/01/2023 17:10:16 0.05,-104.66 0.05,-104.77 11.64 80
